Location: Sceptre
(50.8619°N, 109.2670°W)
Time: 22:26:35
(UTC+00:00)

Envisat - Pass Details

Date: 02 February 2022
Orbit: 764 x 765 km, 98.2° (Epoch: 21 May)

Event Time Altitude Azimuth Distance (km) Brightness Sun altitude
Rises 13:15:15 0° 8° (N) 3,244 6.3 -15.3°
Reaches altitude 10° 13:17:43 10° 1° (N) 2,314 5.4 -14.9°
Maximum altitude 13:22:20 36° 296° (WNW) 1,195 3.5 -14.2°
Drops below altitude 10° 13:26:57 10° 230° (SW) 2,301 5.1 -13.5°
Sets 13:29:23 0° 222° (SW) 3,223 5.9 -13.1°
